COSMOS 2251 DEB

Satellite information

Favourite Embed

Satellite Type and Status

DEBRISIN ORBIT

Key statistics

Satellite COSMOS 2251 DEB at a glance.

Uptime

11812

Days in orbit

Revolutions

≈ 14.5

Per day

Orbit

LEO

Low Earth Orbit

Inclination

74.2

Latest

Satellite identification and parameters

Extended collection of information and parameters for COSMOS 2251 DEB.

Object identification

Identified? True

Debris? True

Object name: COSMOS 2251 DEB

International designator: 1993-036ACW

Object number (NORAD): 34883

Object ID (CCSDS): 34883

Country: COMMONWEALTH OF INDEPENDENT STATES (CIS)

Current information (Y/N): Y

RCS size: SMALL

Orbital parameters

Period: 99.381 minutes

Inclination: 74.1996 deg

SMA: 7107.167 km

Apoapsis: 795.311 km

Periapsis: 662.753 km

RAAN: 166.709 deg

Eccentricy: 0.00932566

Argument of periapsis: 4.9162 deg

Mean anomaly: 355.2891 deg

Mean motion: 14.48965414 rev/day

Mean motion (dot): 0.00019902 rev/day2

B* drag term: 0.0049620192 1/REarth

Two-line elements (TLE)

Creation date: Oct. 18, 2025, 2:17 a.m.

Reference frame: TEME

Reference center: EARTH

Epoch: Oct. 17, 2025, 7:42 p.m. UTC

TLE line 0: 0 COSMOS 2251 DEB

TLE line 1: 1 34883U 93036ACW 25290.82142303 .00019902 00000-0 49620-2 0 9992

TLE line 2: 2 34883 74.1996 166.7090 0093257 4.9162 355.2891 14.48965414856290

Live tracking on map

Real-time ground track for satellite COSMOS 2251 DEB.

In-orbit conjunctions

A list of the most updated potential collisions computed for object COSMOS 2251 DEB.

Target Orbit TCA Probability of collision Miss distance Type
CZ-6A DEB LEO 2024-09-21 12:01:48 0.000106325 476.0 (m) DEBRIS
CZ-6A DEB SSO 2024-06-13 05:15:32 0.0001809242 60.0 (m) DEBRIS

Associated space launch

Military communications satellite. Destroyed in a collision with Iridium 33.

COSMOS 2251 DEB was lifted into orbit during the mission ‘Kosmos-3M | Strela-2M 51’, on board a Kosmos-3M space rocket.

The launch took place on June 16, 1993, 4:17 a.m. from 132/1 (132L).

For more information about the launch, click the button.

Launch to space Kosmos-3M | Strela-2M 51
Kosmos-3M | Strela-2M 51

Agency: N/A

Status: Launch Successful

Launch date: June 16, 1993, 4:17 a.m. UTC

Rocket: Kosmos-3M

Launch pad: 132/1 (132L)

Location: Plesetsk Cosmodrome, Russian Federation

...

Latest news about this satellite

There are no fresh news available about this satellite. Check back as we update our databases every day.


Newsletter sign-up

Weekly statistics, charts and insights to help you stay on top of the space industry.